Dati Storici

Data ora Umidita' aria (%) Temperatura aria (°C) Rad globale (W/m²) Gonioanemometro (°) Tacoanemometro (m/s) Pioggia (mm)
02-11-2012 01:30 94.9 % 7.735 2.032 16.448 1.375 0
02-11-2012 01:20 94.8 % 7.93 1.75 2.106 0.304 0
02-11-2012 01:10 94.9 % 8.142 1.699 31.832 1.281 0
02-11-2012 01:00 94.7 % 8.227 1.519 11.662 0.596 0
02-11-2012 00:50 94.5 % 8.333 1.108 337.069 0.777 0
02-11-2012 00:40 94.6 % 8.517 1.573 0.972 0.571 0
02-11-2012 00:30 94.6 % 8.75 1.42 -0.075 1.249 0
02-11-2012 00:20 94.6 % 8.852 1.676 25.753 0.557 0
02-11-2012 00:10 94.5 % 8.909 1.471 299.471 0.293 0
02-11-2012 00:00 94.2 % 8.889 1.304 329.61 0.692 0
01-11-2012 23:50 93.8 % 8.783 1.278 358.292 0.024 0
01-11-2012 23:40 93.5 % 8.809 1.368 334.499 0.993 0
01-11-2012 23:30 93.3 % 8.924 1.471 328.94 0.245 0
01-11-2012 23:20 93.1 % 8.984 1.433 346.607 0.239 0
01-11-2012 23:10 93.3 % 9.358 1.587 67.81 0.235 0
01-11-2012 23:00 93 % 9.363 1.779 342.709 0.162 0
01-11-2012 22:50 92.4 % 9.288 1.433 305.818 0.677 0
01-11-2012 22:40 91.3 % 9.34 1.368 326.365 0.194 0
01-11-2012 22:30 90.7 % 9.544 1.41 57.637 0.706 0
01-11-2012 22:20 89.7 % 9.769 1.179 15.295 0.92 0

I dati sono presentati in modo automatico a scopo informativo. In seguito a verifica i dati possono subire modifiche o essere invalidati e non riportati negli archivi definitivi.